{"data":{"norad_id":60723,"intl_designator":"2024-152D","name":"STARLINK-11272 [DTC]","alt_names":[],"object_type":"PAYLOAD","status":"ACTIVE","operator":null,"country":"US","launch_date":"2024-08-28","launch_site_code":"AFETR","launch_vehicle":null,"mission":null,"orbit_class":"UNKNOWN","rcs_meters":null,"size_class":null,"mass_kg":null,"dimensions":null,"purposes":["comms"],"wikipedia_slug":null,"has_3d_model":false,"image_url":null,"decayed_at":null,"tle_current":{"epoch":"2026-09-21T08:15:46.569600Z","epoch_age_seconds":115549,"freshness":"FRESH","line1":"1 60723U 24152D   26264.34428900  .00009329  00000+0  81938-4 0  9997","line2":"2 60723  53.1584 231.8375 0001820  86.0768 274.0458 15.69660781119562","mean_motion":15.69660781,"eccentricity":0.000182,"inclination_deg":53.1584,"raan_deg":231.8375,"arg_perigee_deg":86.0768,"mean_anomaly_deg":274.0458,"bstar":8.1938e-5,"rev_number":11956,"period_min":91.739566754201,"perigee_km":358.64128320089,"apogee_km":361.0939168753,"semimajor_km":6738.0046000381,"source":"CELESTRAK","updated_at":"2026-09-22T09:00:49.277397Z"}}}